Other Public Products
Issued by NWS Grand Forks, ND

Home | Current Version | Previous Version | Text Only | Print | Product List | Glossary Off
Versions: 1 2 3 4 5 6 7 8 9 10 11 12 13 14 15 16 17 18 19 20 21 22 23 24 25 26 27 28 29 30 31 32 33 34 35 36 37 38 39 40 41 42 43 44 45 46 47 48 49 50

000
FPUS83 KFGF 010431
OPUFGF
PRAIRIE TO PINES WEATHER ROUNDUP
NATIONAL WEATHER SERVICE EASTERN NORTH DAKOTA/GRAND FORKS ND
1000 PM CST TUE FEB 28 2017

 **SATELLITE DATA USED TO AUGMENT SKY COVER AT AUTOMATED STATIONS**
 *****  WEATHER ACROSS EASTERN NORTH DAKOTA  *****

CITY           SKY/WX    TMP DP  RH WIND       PRES   REMARKS
GRAND FORKS    MOCLDY    13   5  70 N13       29.95R WCI  -2
GRAND FORKS AF FAIR      12   6  78 NW12      29.95R WCI  -2
GRAND CITY NWS NOT AVBL
BUXTON         NOT AVBL
DEVILS LAKE    MOCLDY     6   1  80 NW7       29.93R WCI  -6
FARGO          FAIR      21  18  88 N14       29.88S WCI   8
WAHPETON ARPT  FAIR      27  23  86 N14       29.85S WCI  15
$$

 *****  WEATHER ACROSS CENTRAL AND WESTERN NORTH DAKOTA  *****

CITY           SKY/WX    TMP DP  RH WIND       PRES   REMARKS
JAMESTOWN      CLOUDY    20  15  81 N10       29.90R WCI   9
BISMARCK       FAIR      19  14  81 E8        29.91R WCI   9
MINOT          CLOUDY    14   7  73 SE6       29.89S WCI   5
MINOT AFB      LGT SNOW  12   7  79 SE5       29.89S WCI   4
GARRISON         N/A     14   9  80 E7        29.88R WCI   4
WILLISTON      LGT SNOW  23  20  88 NE5       29.86R FOG     WCI  17
DICKINSON      LGT SNOW  24  20  84 S10       29.79R FOG     WCI  14
HETTINGER      CLOUDY    23  19  85 S8        29.82F WCI  14
$$

 *****  OTHER OBSERVATIONS NORTHEAST NORTH DAKOTA  *****

CITY           SKY/WX    TMP DP  RH WIND       PRES   REMARKS
WALHALLA       NOT AVBL
LANGDON        NOT AVBL
CAVALIER         N/A     10   3  72 NW8       29.98S WCI  -1
GRAFTON        FAIR       9   5  85 NW10      29.99R WCI  -6
CANDO          NOT AVBL
FORT TOTTEN    NOT AVBL
ROLLA          CLOUDY     9   1  72 NE3       29.92S
RUGBY            N/A      7   1  78 CALM      29.92S
 ***** THE ABOVE OBSERVATIONS ARE NON NWS ARE NOT QUALITY
        CONTROLLED AND MAY MIS-REPORT RAIN FOR SNOW...
$$

 *****  OTHER OBSERVATIONS SOUTHEAST NORTH DAKOTA *****

CITY           SKY/WX    TMP DP  RH WIND       PRES   REMARKS
COOPERSTOWN    FAIR      14  10  85 N8        29.91S WCI   3
VALLEY CITY    CLOUDY    18  18 100 N10       29.91S WCI   6
OAKES          NOT AVBL
GWINNER        FAIR      23  21  93 N13       29.88S WCI  11
SHEYENNE NWR     N/A     21  16  80 N7        29.95S WCI  12
BUFFALO        NOT AVBL
WYNDMERE         N/A     25  21  86 N12         N/A  WCI  14
 ***** THE ABOVE OBSERVATIONS ARE NON NWS ARE NOT QUALITY
       CONTROLLED AND MAY MIS-REPORT RAIN FOR SNOW...
$$

  *****  WEATHER ACROSS NORTHERN MINNESOTA  *****

CITY           SKY/WX    TMP DP  RH WIND       PRES   REMARKS
FLAG ISLAND    FAIR      16   0  48 NE5       29.93S WCI   9
WARROAD        FAIR      14   3  62 NE8       29.93S WCI   3
ROSEAU         FAIR      10   1  67 NE3       29.93R
HALLOCK        FAIR       9   3  78 NW8       29.96R WCI  -4
THF RVR FALLS  NOT AVBL
HALSTAD          N/A     19  14  82 N17         N/A  WCI   3
FOSSTON        FAIR      19  12  73 N6        29.88R WCI  11
BAUDETTE       FAIR      17   2  51 NE7       29.89S WCI   8
WASKISH        FAIR      19   9  63 NE6       29.88S WCI  11
CROOKSTON      FAIR      16  12  86 N10       29.94R WCI   3
$$
  *****  WEATHER ACROSS CENTRAL AND WEST MINNESOTA  *****

CITY           SKY/WX    TMP DP  RH WIND       PRES   REMARKS
BEMIDJI        FAIR      21  14  72 N3        29.85S
PARK RAPIDS    FAIR      27  15  61 N7        29.81R WCI  19
WADENA         CLOUDY    27  19  74 N8        29.80S WCI  18
DETROIT LAKES  FAIR      28  21  74 NE6       29.83S WCI  22
MOORHEAD       FAIR      21  18  86 N16       29.88S WCI   7
FERGUS FALLS   FAIR      27  25  93 N3        29.87S
ELBOW LAKE     MOCLDY    29  24  82 N8        29.81F WCI  21
MORRIS MN      FAIR      30  27  86 N10       29.79S WCI  21
STAPLES        CLOUDY    28  21  74 N5        29.80R WCI  23
WHEATON        FAIR      27  25  93 NW12      29.85S WCI  16
$$
  *****  WEATHER ELSEWHERE ACROSS MINNESOTA  *****

CITY           SKY/WX    TMP DP  RH WIND       PRES   REMARKS
DULUTH         FLURRIES  27  23  85 NE12      29.80S WCI  17
INTRNTL FALLS  FAIR      19   2  47 NE6       29.89R WCI  11
ELY            CLOUDY    21   7  53 NE5       29.86R WCI  15
CLOQUET        CLOUDY    28  23  80 NE8       29.80S WCI  20
BRAINERD       CLOUDY    30  23  75 NE13      29.79S WCI  20
HIBBING        CLOUDY    24  16  71 NE10      29.82F WCI  14
ALEXANDRIA     CLOUDY    31  24  75 N9        29.78S WCI  23
SAINT CLOUD    CLOUDY    30  28  92 NE8       29.76S WCI  22
MINNEAPOLIS    CLOUDY    32  28  85 N17G25    29.70S WCI  21
$$

  *****  WEATHER ACROSS SOUTH DAKOTA  *****

CITY           SKY/WX    TMP DP  RH WIND       PRES   REMARKS
SIOUX FALLS    CLOUDY    32  30  92 N10       29.77R WCI  24
BROOKINGS      CLOUDY    29  27  92 N14       29.77R WCI  18
WATERTOWN      CLOUDY    27  24  89 N9        29.78R WCI  18
HURON          LGT SNOW  28  27  96 N10       29.84R FOG     WCI  19
SISSETON         N/A     24  22  91 N17       29.84R WCI  11
ABERDEEN       CLOUDY    25  19  78 N10       29.87S WCI  15
MITCHELL       CLOUDY    30  29  96 NW10      29.83S FOG     WCI  21
PIERRE         FLURRIES  26  23  88 NW14      29.86R WCI  14
MOBRIDGE       CLOUDY    26  19  74 N6        29.85R WCI  19
RAPID CITY     FAIR      20  17  88 CALM      29.83R
$$

  *****  SOME WEATHER IN NEARBY STATES *****

CITY           SKY/WX    TMP DP  RH WIND       PRES   REMARKS
GLASGOW MT     CLOUDY    21  14  74 N9        29.91R WCI  11
GREAT FALLS MT FAIR       9   6  88 SW8       29.92R WCI  -3
CHEYENNE WY    FAIR      19   4  51 W15       29.88R WCI   5
SCOTTSBLUFF NE FAIR      26  13  57 W15       29.88R WCI  14
OMAHA NE       LGT RAIN  38  34  85 NW13      29.76R
DES MOINES IA  CLOUDY    41  37  86 N15       29.63R
DAVENPORT IA   FAIR      53  49  86 N14       29.49F
CHICAGO IL     TSTM      55  53  93 S3        29.48F
EAU CLAIRE WI  CLOUDY    34  32  92 NE13      29.64S WCI  25
LA CROSSE WI   CLOUDY    40  39  97 NW9       29.58R FOG
$$

  *****  SOME NATIONAL WEATHER *****

CITY           SKY/WX    TMP DP  RH WIND       PRES   REMARKS
LA GUARDIA NY  CLOUDY    51  45  79 CALM      30.04F
RALEIGH NC     LGT RAIN  69  59  70 W5        30.13S
ATLANTA GA     MOCLDY    62  59  90 SE5       30.13F
NEW ORLEANS LA MOCLDY    73  71  93 S8        30.07R
OKLAHOMA CITY  MOCLDY    71  55  56 SW21G28   29.66R
ALBUQUERQUE NM MOCLDY    43  30  60 W8        30.07R
SALT LAKE CITY MOCLDY    30  27  88 SE6       30.20R WCI  24
LOS ANGELES CA FAIR      55  44  66 CALM      30.20R
BOISE ID       CLOUDY    35  19  52 CALM      30.20R
SEATTLE WA     MOCLDY    44  33  65 S17G24    30.18R
$$

*** WEATHER ACROSS MANITOBA...SASKATCHEWAN AND ONTARIO ***
                ***ONTARIO***

CITY           SKY/WX    TMP DP  RH WIND       PRES   REMARKS
GERALDTON      CLEAR      5  -4  66 NE10      29.99F WCI -10
THUNDER BAY    MOCLDY    18   5  57 NE8       29.92R WCI   7
SIOUX LOOKOUT  CLEAR     10  -4  52 E5        29.96F WCI   2
TORONTO        CLOUDY    48  45  87 SE6       29.71F
BIG TROUT LK   CLEAR     -8 -15  71 S3        30.10R
PICKLE LAKE    NOT AVBL
DRYDEN         CLEAR     10   0  61 E8        29.93F WCI  -1
KENORA         CLEAR     12  -2  52 E8        29.92F WCI   1
$$
                *** MANITOBA***

CITY           SKY/WX    TMP DP  RH WIND       PRES   REMARKS
BRANDON        PTCLDY     1  -4  78 NW5       29.95R WCI  -8
DAUPHIN        FLURRIES  10   5  79 W6        29.97R WCI   1
ISLAND LAKE    PTCLDY     3  -6  66 SE7       30.00S WCI  -9
PILOT MOUND      N/A      9   0  66 E5          N/A  WCI   0
THE PAS        PTCLDY    12   0  57 SW5       29.92R WCI   4
THOMPSON       FLURRIES   7  -2  66 S6        29.87F WCI  -3
WINNIPEG       MOCLDY     3  -2  78 N5        29.99S WCI  -6
LYNN LAKE      CLEAR     -9 -15  77 NW12G18   29.92R WCI -29
CHURCHILL      PTCLDY   -24 -33  62 SW3       30.12R
GILLAM         CLEAR     -8 -15  71 SE7       29.99F WCI -22
$$
                ***SASKATCHEWAN***

CITY           SKY/WX    TMP DP  RH WIND       PRES   REMARKS
ESTEVAN        FLURRIES  12  10  92 SE6       29.89R WCI   3
KINDERSLEY     PTCLDY    12   5  73 S7        29.89R WCI   2
LLOYDMINSTER   PTCLDY     9   1  72 SW2       29.86S
PRINCE ALBERT  PTCLDY     5  -2  72 CALM      29.91R
REGINA         PTCLDY    10   9  92 S2        29.90R
YORKTON        FLURRIES   9   7  92 SE3       29.91S



USA.gov is the U.S. government's official web portal to all federal, state and local government web resources and services.